User: anonymous   Login
Location: Caltech
(34.1382°N, 118.1253°W)
Time: 04:46:49
(UTC-07:00)
Language:

Iridium 70 - Orbit

View from above orbital plane
View from above orbital plane
View from above satellite
View from above satellite

Ground track
Ground track

The orbit data is extracted from the following two-line orbital elements,

1 25342U 98032A   15146.49647426  .00000059  00000-0  14104-4 0  9995
2 25342 086.3982 178.8415 0002239 089.4748 022.3880 14.34216090891218
Epoch (UTC): 26 May 2015 11:54:55
Eccentricity: 0.0002239
inclination: 86.3982°
perigee height: 776 km
apogee height: 779 km
right ascension of ascending node: 178.8415°
argument of perigee: 89.4748°
revolutions per day: 14.34216090
mean anomaly at epoch: 22.3880°
orbit number at epoch: 89121

The dashed part of the orbit path shows where the satellite is in the earth's shadow,  

DLR